Terminal Aerodrome Forecast
Issued by NWS

Home | Current Version | Previous Version | Graphics & Text | Print | Product List | Glossary Off
Versions: 1 2 3 4 5 6 7 8 9 10 11 12 13 14 15 16 17 18 19 20 21 22 23 24 25 26 27

000
FTUS43 KDDC 231023 AAB
TAFGCK
TAF AMD
KGCK 231023Z 2310/2406 VRB05KT 1SM BR OVC006
      TEMPO 2312/2315 1/2SM FG
     FM231900 16006KT P6SM SCT035=

USA.gov is the U.S. government's official web portal to all federal, state and local government web resources and services.